Wind_Speed
4 3 7 12 8 5 4 4 9 8 8 7 7 9 10 18 23 20 24 28 29 28 27 26 25 21 16 37 35 29 41 37 32 30 30 26 26 26 22 20 20 19 18 18
2 5 11 8 6 7 8 9 11 8 8 5 12 19 8 7 13 27 31 29 32 36 35 32 31 28 28 26 37 33 42 39 38 33 28 23 23 23 20 18 18 19 19 19
6 6 2 6 9 11 11 7 10 12 5 3 5 15 9 6 13 23 30 35 29 33 35 29 29 29 27 26 41 36 41 42 40 34 28 26 24 20 21 21 20 19 18 16
5 7 8 9 6 11 10 10 12 6 4 9 5 10 8 10 12 9 22 27 28 23 23 22 23 25 30 26 42 39 43 44 41 34 29 28 27 26 24 18 15 15 16 16
6 7 6 5 2 2 8 6 6 3 4 4 4 2 2 5 17 17 11 12 3 3 4 12 16 17 18 25 41 44 45 44 38 34 29 26 24 21 17 16 16 13 12 14
4 8 3 3 2 7 6 3 2 1 1 7 7 6 16 3 4 10 6 2 3 2 3 4 7 12 15 27 43 46 45 40 35 31 27 24 21 20 18 17 17 13 10 12
5 3 1 9 5 5 9 6 4 3 2 9 6 6 14 11 11 12 18 14 3 3 2 2 4 6 15 26 36 40 40 36 31 28 25 21 20 21 20 19 17 13 12 14
2 4 7 10 4 3 3 2 1 5 4 5 5 6 5 2 14 28 31 29 13 13 4 10 12 14 20 31 36 34 33 31 29 26 23 21 18 18 17 15 14 13 11 12
3 3 3 12 10 3 4 3 2 4 8 3 5 6 4 14 19 27 30 32 28 14 3 7 17 23 27 29 30 31 28 25 23 20 18 16 17 16 16 16 14 13 13 13
1 4 3 4 4 9 4 4 2 2 4 6 6 5 1 12 14 14 19 27 34 25 10 5 12 16 20 21 22 22 20 19 18 17 16 16 17 16 16 16 13 11 9 10
2 3 4 3 3 3 4 3 2 1 3 4 4 2 5 9 12 14 16 23 27 33 20 11 11 13 13 14 15 15 14 15 14 15 18 18 18 16 14 12 13 12 11 11
1 3 3 3 7 6 5 4 4 1 5 3 3 3 5 8 7 15 23 25 25 30 27 18 14 15 15 16 15 16 17 18 18 13 19 18 18 17 16 13 12 11 12 12
3 2 3 7 4 5 3 3 6 5 5 6 5 3 5 21 16 15 15 23 21 23 31 24 19 21 18 16 15 14 17 17 19 19 20 19 18 16 15 13 11 9 8 10
5 3 6 5 5 4 4 4 7 5 6 5 11 17 22 16 15 19 11 18 19 19 22 26 20 23 19 17 18 19 18 18 18 17 18 17 16 15 14 10 8 5 4 5
3 5 5 6 9 10 9 12 14 8 12 10 14 16 16 17 17 21 16 11 15 23 28 27 35 22 17 19 20 20 19 20 16 15 17 15 14 12 11 9 6 4 4 4
3 2 2 4 4 7 15 18 16 17 19 18 18 21 14 24 26 21 21 14 15 17 28 29 32 15 22 24 21 22 20 16 15 14 12 12 12 12 12 10 7 7 7 10
3 2 3 5 2 5 9 10 6 7 11 11 13 18 14 14 18 20 21 17 12 10 20 26 28 26 24 23 24 22 20 18 17 15 11 14 14 15 13 11 10 13 12 13
5 5 2 3 3 2 7 6 9 10 13 12 11 13 16 22 32 27 25 20 10 9 12 15 25 18 1 29 28 24 22 19 17 15 16 17 15 15 12 12 15 15 14 17
7 5 1 2 2 7 7 1 6 7 14 8 9 16 25 28 20 21 20 14 7 8 16 17 20 13 17 22 30 25 24 21 17 15 19 17 17 17 16 17 18 18 19 20
6 3 4 3 3 4 2 8 21 20 5 13 20 19 22 6 4 4 18 13 11 7 13 16 16 21 18 18 27 27 24 22 18 17 21 18 18 18 18 21 21 23 21 25
3 2 10 9 4 7 4 10 17 4 6 19 23 26 15 5 4 6 14 9 8 1 13 16 19 20 13 15 27 28 25 22 19 19 19 19 19 18 19 23 22 22 23 24
6 4 4 2 3 6 5 6 2 9 9 14 26 20 12 7 14 15 11 4 4 5 13 13 14 15 9 19 27 29 25 23 21 19 19 20 21 19 19 21 21 23 24 25
1 6 3 7 5 6 11 16 21 16 14 11 20 23 13 5 5 7 10 9 11 7 14 12 16 8 4 23 27 28 26 23 22 19 20 22 22 20 20 22 24 24 24 25
3 5 4 1 5 4 17 17 13 13 14 17 19 17 9 2 6 7 9 12 10 7 6 12 18 3 7 18 21 23 24 23 22 20 22 24 24 23 24 24 23 23 22 17
6 3 3 4 8 13 11 14 15 14 16 17 17 19 16 13 7 6 8 12 14 11 5 10 11 13 5 5 12 17 23 22 23 22 24 26 26 25 25 23 22 19 15 12
9 6 5 7 11 8 14 20 19 13 16 16 12 16 12 9 6 2 7 12 16 16 12 9 11 11 8 7 12 18 23 22 25 25 27 28 28 27 23 23 22 16 12 11
Wind_Direction
207 156 204 223 210 218 236 277 274 274 271 276 258 263 265 282 294 288 281 279 269 266 266 261 262 256 263 232 226 223 205 201 198 197 200 204 214 223 236 227 227 230 233 238
353 235 233 232 238 237 253 261 270 275 249 268 292 280 262 244 253 262 274 274 278 282 274 262 253 256 258 248 222 215 205 201 201 203 206 211 213 221 224 227 228 231 240 248
191 242 231 224 250 255 248 238 258 264 272 261 282 288 296 266 260 279 275 273 279 282 282 274 253 249 254 249 215 212 207 203 202 203 207 207 210 217 225 229 236 243 248 247
220 269 236 263 247 220 259 225 243 262 287 275 150 293 276 276 292 288 283 292 293 290 276 262 251 246 252 252 216 210 206 202 201 203 207 211 214 216 226 233 233 232 246 246
256 330 341 318 283 282 245 236 236 253 243 300 160 187 294 14 297 290 286 295 278 209 240 241 248 246 245 233 213 206 203 199 199 203 210 215 218 224 230 227 237 241 251 241
246 295 360 289 346 84 309 322 312 349 139 273 192 176 284 223 286 310 349 142 144 205 247 248 221 214 233 220 205 201 194 192 196 198 207 216 222 223 222 228 219 229 226 200
349 359 69 19 346 37 29 62 331 285 250 246 193 185 251 352 15 343 322 279 233 291 241 213 256 232 216 210 197 186 185 185 190 197 204 209 218 224 228 222 222 223 222 209
81 316 358 339 54 339 330 260 151 259 232 276 312 234 246 22 12 15 8 3 345 337 199 171 177 179 180 177 179 178 181 183 188 197 206 214 218 216 214 214 208 222 227 219
26 179 148 36 42 39 345 36 193 240 270 248 237 267 187 19 21 12 3 3 356 348 358 167 159 159 160 162 166 174 181 185 191 202 211 213 209 205 206 205 209 216 224 230
88 319 356 355 5 63 98 273 3 247 253 239 259 224 240 15 7 358 358 352 354 3 4 190 162 160 162 166 168 174 182 193 199 207 206 200 198 201 204 210 212 216 215 196
105 122 276 65 72 282 338 324 312 313 269 242 275 250 85 26 358 350 340 336 343 353 346 318 195 181 183 189 191 195 200 213 208 194 194 193 183 178 178 188 183 187 191 199
28 130 280 214 242 266 249 5 35 283 295 275 281 259 104 36 18 350 335 332 327 341 345 318 234 209 197 196 198 206 206 196 194 183 172 167 172 177 178 180 189 196 202 220
137 105 350 337 30 32 29 358 322 256 206 227 269 269 287 326 320 321 317 319 302 331 342 345 249 208 198 202 196 200 189 183 177 176 171 171 176 180 183 194 196 202 223 240
136 147 164 206 231 228 288 270 256 239 261 253 260 286 294 309 303 300 257 264 326 328 323 332 290 208 184 188 191 187 177 178 178 183 181 183 194 196 182 184 190 194 202 229
118 196 200 221 245 270 278 273 275 258 250 246 274 268 276 289 292 297 283 295 315 319 307 328 337 195 187 183 188 191 184 179 184 196 178 175 181 179 164 160 154 147 158 150
37 268 202 260 242 258 286 285 269 267 269 266 259 263 269 271 289 295 277 273 296 309 307 310 321 301 190 186 185 186 184 179 178 182 174 173 172 160 150 139 131 141 138 149
134 124 60 278 283 322 288 263 244 237 251 254 263 264 261 273 276 273 275 253 271 293 317 297 308 341 202 191 183 186 190 184 178 180 181 177 166 157 142 134 143 143 148 147
133 124 141 265 331 268 242 263 260 265 272 282 291 291 284 270 271 279 275 239 245 270 283 281 284 329 209 198 190 183 182 181 181 184 182 172 166 155 149 144 144 146 142 136
154 136 224 180 228 273 276 342 341 309 302 20 334 312 305 293 271 267 232 202 234 293 324 308 296 336 339 198 194 183 180 174 177 186 176 173 164 160 154 149 145 151 138 132
123 154 139 172 216 260 315 343 321 312 286 5 316 298 305 252 165 259 204 202 224 282 326 328 246 306 326 187 189 184 178 173 170 177 171 170 165 161 156 153 145 144 136 134
125 165 210 235 245 277 247 280 309 327 308 341 320 320 9 7 323 313 172 203 199 124 358 358 276 307 306 205 189 185 176 172 166 172 170 162 163 160 158 159 154 154 149 145
169 152 200 154 184 266 176 333 27 280 290 347 314 324 345 25 19 42 35 63 53 5 359 345 301 287 296 196 189 185 176 170 165 178 168 163 162 160 159 163 163 160 155 152
274 188 205 185 215 262 323 303 311 314 318 270 304 325 327 65 44 39 2 29 54 51 6 336 320 198 181 186 190 183 179 169 167 175 168 163 162 161 161 159 155 151 151 147
273 222 218 175 261 254 302 304 307 330 348 339 327 327 316 5 20 23 5 1 14 31 334 354 344 40 130 183 188 195 179 172 170 171 167 164 162 160 163 161 159 157 156 156
200 245 222 263 275 284 278 299 298 310 319 320 333 335 330 282 335 358 4 0 1 4 334 351 1 13 127 148 195 205 184 173 172 172 169 165 165 163 166 166 163 160 159 173
189 208 179 225 212 227 274 302 311 313 312 313 323 335 358 301 305 342 347 347 343 347 347 349 14 12 5 170 224 210 184 178 177 172 170 168 169 168 169 167 161 161 169 168
Height
1496 1504 1508 1500 1500 1498 1499 1502 1503 1496 1486 1486 1482 1477 1474 1469 1468 1463 1459 1456 1454 1455 1455 1455 1456 1458 1458 1461 1464 1466 1471 1476 1481 1486 1489 1493 1496 1501 1504 1506 1508 1509 1511 1511
1500 1503 1495 1494 1495 1497 1500 1503 1500 1490 1481 1481 1478 1468 1469 1466 1463 1458 1453 1447 1447 1447 1448 1447 1449 1451 1453 1454 1458 1461 1466 1470 1474 1481 1484 1488 1493 1497 1501 1504 1505 1507 1508 1509
1502 1495 1490 1493 1494 1495 1494 1499 1495 1490 1481 1476 1476 1468 1465 1460 1455 1450 1445 1441 1441 1440 1437 1437 1440 1443 1446 1447 1451 1456 1460 1464 1468 1476 1481 1485 1489 1494 1496 1498 1501 1502 1504 1505
1493 1486 1487 1488 1491 1488 1492 1484 1482 1483 1486 1490 1472 1483 1465 1457 1449 1443 1437 1435 1434 1434 1432 1431 1433 1435 1439 1443 1447 1451 1455 1460 1466 1472 1476 1480 1482 1486 1491 1495 1498 1500 1500 1500
1492 1486 1485 1486 1485 1484 1485 1477 1478 1477 1483 1482 1479 1490 1458 1456 1451 1442 1437 1432 1431 1431 1430 1430 1429 1432 1434 1436 1442 1446 1451 1458 1463 1468 1474 1477 1480 1484 1488 1492 1494 1494 1495 1496
1491 1485 1486 1485 1482 1483 1480 1477 1478 1478 1483 1491 1479 1480 1449 1461 1454 1445 1439 1432 1431 1432 1431 1431 1429 1428 1431 1434 1438 1442 1449 1457 1462 1466 1471 1475 1478 1480 1484 1487 1489 1491 1493 1495
1496 1492 1490 1488 1486 1484 1484 1487 1508 1501 1495 1486 1470 1477 1453 1455 1461 1460 1445 1436 1434 1433 1432 1431 1431 1429 1429 1433 1439 1444 1449 1456 1461 1464 1468 1472 1475 1478 1481 1484 1486 1489 1491 1492
1506 1503 1499 1497 1499 1501 1497 1498 1499 1502 1500 1498 1479 1478 1461 1462 1461 1451 1446 1442 1441 1441 1434 1430 1430 1430 1431 1433 1438 1446 1452 1454 1459 1463 1466 1469 1472 1475 1478 1481 1484 1487 1489 1491
1510 1508 1504 1503 1501 1497 1503 1507 1506 1506 1494 1498 1483 1463 1456 1457 1458 1457 1456 1451 1448 1444 1442 1441 1435 1434 1436 1438 1442 1445 1451 1455 1458 1462 1464 1467 1470 1473 1476 1480 1482 1485 1486 1488
1513 1516 1508 1507 1500 1502 1509 1512 1510 1505 1507 1494 1473 1467 1457 1462 1464 1467 1463 1460 1453 1446 1446 1448 1444 1443 1441 1444 1445 1446 1449 1454 1457 1461 1464 1466 1469 1472 1474 1478 1480 1482 1484 1486
1509 1516 1517 1510 1514 1515 1513 1513 1509 1511 1508 1500 1483 1467 1467 1472 1473 1471 1467 1466 1460 1450 1449 1452 1448 1445 1447 1447 1447 1448 1448 1454 1457 1460 1464 1465 1468 1471 1473 1476 1478 1480 1482 1484
1512 1519 1528 1520 1512 1510 1513 1518 1519 1521 1520 1514 1505 1476 1472 1472 1472 1473 1471 1466 1463 1454 1452 1450 1448 1447 1446 1449 1449 1450 1449 1454 1456 1460 1463 1465 1468 1470 1472 1474 1477 1478 1480 1482
1510 1520 1539 1516 1516 1514 1518 1518 1520 1521 1523 1520 1506 1475 1470 1473 1473 1470 1469 1469 1468 1456 1452 1449 1447 1444 1442 1448 1449 1449 1450 1453 1457 1461 1462 1463 1466 1469 1471 1473 1475 1476 1478 1479
1509 1518 1527 1533 1523 1523 1529 1525 1519 1518 1521 1523 1501 1492 1474 1473 1473 1468 1467 1466 1455 1453 1452 1450 1446 1443 1440 1445 1448 1450 1452 1455 1457 1461 1461 1463 1465 1468 1470 1472 1474 1475 1476 1476
1510 1518 1521 1521 1516 1515 1517 1514 1509 1514 1508 1508 1495 1491 1479 1471 1466 1462 1461 1457 1455 1449 1449 1447 1444 1440 1441 1442 1446 1450 1451 1455 1458 1460 1460 1462 1465 1467 1469 1471 1472 1473 1475 1476
1513 1518 1515 1517 1513 1513 1510 1504 1501 1497 1493 1488 1482 1476 1471 1465 1461 1457 1453 1453 1450 1445 1440 1440 1443 1428 1438 1440 1443 1448 1451 1453 1457 1460 1460 1462 1464 1466 1469 1471 1472 1474 1475 1477
1513 1517 1525 1528 1512 1514 1514 1494 1491 1487 1480 1478 1478 1466 1461 1459 1455 1453 1451 1449 1447 1445 1436 1439 1445 1435 1436 1437 1441 1445 1448 1452 1455 1458 1460 1462 1464 1467 1470 1471 1473 1475 1477 1478
1510 1519 1525 1534 1518 1529 1496 1485 1483 1480 1472 1467 1465 1461 1457 1452 1447 1446 1444 1444 1444 1441 1444 1441 1439 1426 1426 1431 1437 1442 1446 1450 1454 1457 1458 1461 1465 1468 1470 1471 1474 1477 1479 1480
1501 1513 1534 1529 1526 1504 1485 1481 1480 1478 1469 1469 1465 1459 1450 1443 1441 1435 1436 1440 1440 1437 1431 1430 1431 1426 1426 1429 1434 1439 1444 1448 1451 1455 1458 1462 1465 1468 1471 1472 1475 1479 1481 1482
1503 1509 1518 1519 1517 1507 1481 1480 1475 1473 1469 1462 1462 1455 1443 1432 1439 1433 1433 1437 1438 1437 1433 1429 1431 1425 1422 1426 1432 1437 1443 1447 1450 1453 1457 1462 1465 1468 1471 1474 1477 1481 1484 1485
1511 1515 1512 1509 1513 1497 1482 1476 1472 1477 1473 1461 1458 1451 1443 1441 1439 1435 1435 1438 1438 1436 1433 1429 1428 1424 1426 1429 1431 1436 1441 1446 1450 1453 1458 1462 1465 1469 1472 1475 1479 1483 1486 1488
1501 1524 1517 1515 1515 1498 1477 1474 1479 1472 1465 1463 1455 1452 1449 1446 1442 1437 1439 1438 1437 1434 1435 1432 1430 1425 1423 1425 1429 1435 1440 1445 1449 1453 1458 1462 1466 1469 1473 1476 1480 1483 1487 1491
1502 1496 1501 1494 1488 1472 1472 1472 1470 1467 1462 1458 1456 1452 1449 1447 1445 1443 1441 1439 1438 1437 1439 1433 1425 1425 1424 1426 1429 1434 1439 1444 1449 1453 1458 1462 1466 1470 1474 1477 1481 1486 1491 1494
1487 1484 1484 1480 1473 1471 1471 1468 1466 1465 1461 1458 1453 1451 1449 1446 1445 1444 1443 1440 1440 1439 1440 1437 1428 1423 1425 1427 1431 1433 1439 1444 1448 1453 1458 1462 1467 1471 1475 1479 1484 1488 1493 1497
1483 1481 1477 1476 1469 1469 1466 1465 1463 1462 1459 1456 1452 1449 1446 1445 1444 1444 1444 1442 1440 1440 1440 1440 1435 1427 1425 1428 1431 1434 1438 1443 1448 1453 1458 1463 1468 1471 1476 1481 1486 1491 1496 1500
1472 1470 1475 1469 1461 1462 1462 1461 1460 1458 1456 1453 1451 1448 1445 1444 1443 1444 1443 1442 1440 1439 1440 1436 1432 1430 1428 1430 1432 1434 1438 1443 1448 1453 1458 1463 1468 1472 1477 1482 1488 1493 1498 1501